Olivia, MN

7:17 AM CST on January 23, 2018 (GMT -0600)
Olivia Regional

Weather History for KOVL - May, 2013

Change the Weather History Date:

Sunday, May 26, 2013

  Actual Average (KRWF) Record (KRWF)
Temperature  
Mean Temperature 52 °F -  
Max Temperature 53 °F 73 °F 94 °F (1966)
Min Temperature 50 °F 52 °F 35 °F (1992)
Degree Days  
Heating Degree Days 14    
Growing Degree Days 2 (Base 50)    
Moisture  
Dew Point 47 °F    
Average Humidity 83    
Maximum Humidity 94    
Minimum Humidity 76    
Precipitation  
Precipitation 0.00 in - - ()
Sea Level Pressure  
Sea Level Pressure 30.09 in    
Wind  
Wind Speed 14 mph (ESE)    
Max Wind Speed 24 mph    
Max Gust Speed 34 mph    
Visibility 9 miles    
Events      
Averages and records for this station are not official NWS values.
T = Trace of Precipitation, MM = Missing Value Source: NWS Daily Summary

Daily Weather History Graph

Daily Weather History Graph

Search for Another Location

Airport or City:

Trip Planner

Search our weather history database for the weather conditions in past years. The results will help you decide how hot, cold, wet, or windy it might be!

Date:

Astronomy

May. 26, 2013 Rise Set
Actual Time 5:41 AM CDT 8:53 PM CDT
Civil Twilight 5:05 AM CDT 9:29 PM CDT
Nautical Twilight 4:19 AM CDT 10:15 PM CDT
Astronomical Twilight 3:23 AM CDT 11:12 PM CDT
Moon 10:40 PM CDT (5/26) 7:12 AM CDT (5/26)
Length of Visible Light 16h 23m
Length of Day
15h 12m
Waning Gibbous, 96% of the Moon is Illuminated
May 26
Waning Gibbous
May 31
Last Quarter
Jun 8
New
Jun 16
First Quarter
Jun 23
Full

Hourly Weather History & Observations

Time (CDT) Temp. Dew Point Humidity Pressure Visibility Wind Dir Wind Speed Gust Speed Precip Events Conditions
12:14 AM 51.8 °F 46.4 °F 82% 30.15 in 10.0 mi ESE 9.2 mph - N/A   Overcast
12:34 AM 51.8 °F 44.6 °F 76% 30.15 in 10.0 mi ESE 11.5 mph 20.7 mph N/A   Overcast
12:54 AM 51.8 °F 46.4 °F 82% 30.17 in 10.0 mi ESE 12.7 mph 18.4 mph N/A   Overcast
1:13 AM 51.8 °F 46.4 °F 82% 30.16 in 10.0 mi ESE 13.8 mph 20.7 mph N/A   Overcast
1:34 AM 51.8 °F 46.4 °F 82% 30.14 in 10.0 mi ESE 13.8 mph 18.4 mph N/A   Overcast
1:54 AM 51.8 °F 46.4 °F 82% 30.13 in 10.0 mi East 11.5 mph 18.4 mph N/A   Overcast
2:14 AM 51.8 °F 44.6 °F 76% 30.12 in 10.0 mi ESE 15.0 mph 19.6 mph N/A   Overcast
2:34 AM 50.0 °F 44.6 °F 82% 30.13 in 10.0 mi ESE 12.7 mph - N/A   Overcast
2:54 AM 50.0 °F 44.6 °F 82% 30.12 in 10.0 mi ESE 15.0 mph 20.7 mph N/A   Overcast
3:14 AM 50.0 °F 44.6 °F 82% 30.11 in 10.0 mi ESE 13.8 mph 25.3 mph N/A   Overcast
3:34 AM 50.0 °F 44.6 °F 82% 30.10 in 10.0 mi ESE 12.7 mph 19.6 mph N/A   Overcast
3:54 AM 50.0 °F 44.6 °F 82% 30.11 in 10.0 mi ESE 12.7 mph 21.9 mph N/A   Overcast
4:14 AM 50.0 °F 44.6 °F 82% 30.13 in 10.0 mi East 11.5 mph 17.3 mph N/A   Overcast
4:34 AM 50.0 °F 44.6 °F 82% 30.12 in 10.0 mi ESE 15.0 mph 21.9 mph N/A   Mostly Cloudy
4:54 AM 50.0 °F 42.8 °F 76% 30.14 in 10.0 mi East 16.1 mph 21.9 mph N/A   Mostly Cloudy
5:13 AM 50.0 °F 42.8 °F 76% 30.14 in 10.0 mi East 12.7 mph 18.4 mph N/A   Overcast
5:34 AM 50.0 °F 42.8 °F 76% 30.12 in 10.0 mi East 17.3 mph 23.0 mph N/A   Overcast
5:54 AM 50.0 °F 42.8 °F 76% 30.13 in 10.0 mi ESE 17.3 mph 25.3 mph N/A   Overcast
6:14 AM 50.0 °F 42.8 °F 76% 30.13 in 10.0 mi ESE 10.4 mph 19.6 mph N/A   Overcast
6:34 AM 50.0 °F 42.8 °F 76% 30.13 in 10.0 mi ESE 12.7 mph 18.4 mph N/A   Overcast
6:54 AM 50.0 °F 42.8 °F 76% 30.13 in 10.0 mi ESE 12.7 mph 19.6 mph N/A   Overcast
7:14 AM 50.0 °F 42.8 °F 76% 30.13 in 10.0 mi ESE 16.1 mph - N/A   Overcast
7:34 AM 50.0 °F 42.8 °F 76% 30.13 in 10.0 mi ESE 10.4 mph 16.1 mph N/A   Overcast
7:54 AM 50.0 °F 44.6 °F 82% 30.12 in 10.0 mi ESE 13.8 mph 19.6 mph N/A   Overcast
8:13 AM 51.8 °F 44.6 °F 76% 30.11 in 10.0 mi ESE 15.0 mph 24.2 mph N/A   Mostly Cloudy
8:34 AM 51.8 °F 44.6 °F 76% 30.11 in 10.0 mi ESE 17.3 mph 25.3 mph N/A   Mostly Cloudy
8:54 AM 51.8 °F 44.6 °F 76% 30.10 in 10.0 mi ESE 20.7 mph 31.1 mph N/A   Overcast
9:14 AM 51.8 °F 44.6 °F 76% 30.09 in 10.0 mi ESE 23.0 mph 34.5 mph N/A   Overcast
9:34 AM 51.8 °F 44.6 °F 76% 30.11 in 10.0 mi ESE 21.9 mph 27.6 mph N/A   Overcast
9:54 AM 53.6 °F 46.4 °F 77% 30.13 in 10.0 mi SE 18.4 mph 24.2 mph N/A   Overcast
10:14 AM 53.6 °F 46.4 °F 77% 30.14 in 10.0 mi SE 16.1 mph 25.3 mph N/A   Overcast
10:33 AM 51.8 °F 46.4 °F 82% 30.15 in 10.0 mi SE 12.7 mph 20.7 mph N/A   Overcast
10:54 AM 51.8 °F 46.4 °F 82% 30.14 in 10.0 mi SE 12.7 mph 21.9 mph N/A   Overcast
11:14 AM 51.8 °F 46.4 °F 82% 30.14 in 7.0 mi SE 13.8 mph 18.4 mph N/A   Overcast
11:34 AM 51.8 °F 46.4 °F 82% 30.11 in 10.0 mi ESE 16.1 mph 19.6 mph N/A   Overcast
11:54 AM 53.6 °F 50.0 °F 88% 30.08 in 7.0 mi ESE 20.7 mph 27.6 mph N/A   Overcast
12:13 PM 53.6 °F 48.2 °F 82% 30.09 in 7.0 mi ESE 24.2 mph 31.1 mph N/A   Overcast
12:34 PM 51.8 °F 46.4 °F 82% 30.12 in 10.0 mi ESE 18.4 mph 26.5 mph N/A   Overcast
12:54 PM 53.6 °F 48.2 °F 82% 30.12 in 10.0 mi SE 13.8 mph 26.5 mph N/A   Overcast
1:13 PM 53.6 °F 48.2 °F 82% 30.16 in 7.0 mi SE 15.0 mph 19.6 mph N/A   Overcast
1:34 PM 53.6 °F 50.0 °F 88% 30.11 in 10.0 mi SE 15.0 mph 23.0 mph N/A   Overcast
1:54 PM 51.8 °F 46.4 °F 82% 30.06 in 7.0 mi SE 24.2 mph 32.2 mph N/A   Overcast
2:13 PM 51.8 °F 46.4 °F 82% 30.04 in 7.0 mi ESE 16.1 mph 31.1 mph N/A   Overcast
2:34 PM 51.8 °F 46.4 °F 82% 30.03 in 10.0 mi East 18.4 mph 26.5 mph N/A   Overcast
2:53 PM 51.8 °F 46.4 °F 82% 30.05 in 10.0 mi East 21.9 mph 25.3 mph N/A   Overcast
3:14 PM 53.6 °F 50.0 °F 88% 30.06 in 10.0 mi ESE 13.8 mph 26.5 mph N/A   Overcast
3:34 PM 53.6 °F 50.0 °F 88% 30.06 in 10.0 mi East 16.1 mph 23.0 mph N/A   Overcast
3:54 PM 53.6 °F 48.2 °F 82% 30.06 in 10.0 mi ESE 19.6 mph 26.5 mph N/A   Overcast
4:14 PM 53.6 °F 48.2 °F 82% 30.06 in 10.0 mi ESE 12.7 mph 25.3 mph N/A   Overcast
4:33 PM 53.6 °F 48.2 °F 82% 30.06 in 10.0 mi East 11.5 mph 19.6 mph N/A   Overcast
4:54 PM 53.6 °F 48.2 °F 82% 30.06 in 10.0 mi East 10.4 mph 17.3 mph N/A   Overcast
5:14 PM 53.6 °F 50.0 °F 88% 30.07 in 10.0 mi ESE 13.8 mph 20.7 mph N/A   Overcast
5:34 PM 53.6 °F 50.0 °F 88% 30.06 in 10.0 mi East 11.5 mph - N/A   Overcast
5:54 PM 53.6 °F 50.0 °F 88% 30.06 in 10.0 mi East 15.0 mph - N/A   Overcast
6:13 PM 53.6 °F 50.0 °F 88% 30.08 in 10.0 mi East 11.5 mph 19.6 mph N/A   Overcast
6:34 PM 53.6 °F 50.0 °F 88% 30.08 in 10.0 mi ESE 15.0 mph 24.2 mph N/A   Overcast
6:54 PM 53.6 °F 50.0 °F 88% 30.08 in 10.0 mi ESE 15.0 mph 23.0 mph N/A   Overcast
7:14 PM 53.6 °F 50.0 °F 88% 30.08 in 10.0 mi ESE 6.9 mph 17.3 mph N/A   Overcast
7:34 PM 53.6 °F 50.0 °F 88% 30.08 in 10.0 mi ESE 13.8 mph 19.6 mph N/A   Overcast
7:54 PM 53.6 °F 50.0 °F 88% 30.07 in 3.0 mi East 3.5 mph - N/A   Overcast
8:14 PM 53.6 °F 51.8 °F 94% 30.07 in 1.5 mi ESE 11.5 mph 16.1 mph N/A   Overcast
8:33 PM 53.6 °F 51.8 °F 94% 30.06 in 1.2 mi ESE 6.9 mph - N/A   Overcast
8:54 PM 53.6 °F 51.8 °F 94% 30.06 in 2.0 mi East 10.4 mph 16.1 mph N/A   Overcast
9:13 PM 53.6 °F 51.8 °F 94% 30.06 in 4.0 mi East 11.5 mph - N/A   Overcast
9:34 PM 53.6 °F 51.8 °F 94% 30.05 in 7.0 mi East 12.7 mph 17.3 mph N/A   Overcast
9:53 PM 53.6 °F 51.8 °F 94% 30.05 in 10.0 mi ESE 11.5 mph 17.3 mph N/A   Overcast
10:14 PM 53.6 °F 51.8 °F 94% 30.04 in 10.0 mi ESE 13.8 mph 18.4 mph N/A   Overcast
10:33 PM 53.6 °F 51.8 °F 94% 30.02 in 10.0 mi ESE 15.0 mph 20.7 mph N/A   Overcast
10:54 PM 53.6 °F 50.0 °F 88% 30.00 in 10.0 mi ESE 15.0 mph 20.7 mph N/A   Overcast
11:14 PM 53.6 °F 50.0 °F 88% 29.99 in 10.0 mi ESE 13.8 mph 18.4 mph N/A   Overcast
11:34 PM 53.6 °F 50.0 °F 88% 30.00 in 10.0 mi ESE 13.8 mph 17.3 mph N/A   Overcast
11:54 PM 53.6 °F 50.0 °F 88% 30.00 in 10.0 mi ESE 17.3 mph 21.9 mph N/A   Overcast